Regional Weather Roundup
Issued by NWS

Home | Current Version | Previous Version | Graphics & Text | Print | Product List | Glossary On
Versions: 1 2 3 4 5 6 7 8 9 10 11 12 13 14 15 16 17 18 19 20 21 22 23 24 25 26 27 28 29 30 31 32 33 34 35 36 37 38 39 40 41 42 43 44 45 46 47 48 49 50
000
ASUS43 KLMK 230202
RWRKY
KENTUCKY REGIONAL WEATHER ROUNDUP
NATIONAL WEATHER SERVICE LOUISVILLE KY
1000 PM EDT SAT JUL 22 2017

NOTE "FAIR" INDICATES FEW OR NO CLOUDS BELOW 12,000 FEET
WITH NO SIGNIFICANT WEATHER AND/OR OBSTRUCTIONS TO VISIBILITY.

KYZ001>023-026-027-061>063-070>075-230300-
WESTERN AND SOUTH CENTRAL KENTUCKY

CITY           SKY/WX    TMP DP  RH WIND       PRES   REMARKS
PADUCAH        CLEAR     84  73  69 SW3       29.84R HX  90
HENDERSON      CLEAR     83  75  77 S6        29.84R HX  90
OWENSBORO      CLEAR     84  76  76 S5        29.85R HX  93
HOPKINSVILLE   NOT AVBL
BOWLING GREEN  CLEAR     88  75  65 SW5       29.89R HX  97
GLASGOW        NOT AVBL
$$

KYZ024-025-028>034-038-045-046-053-230300-
NORTH CENTRAL KENTUCKY

CITY           SKY/WX    TMP DP  RH WIND       PRES   REMARKS
LOUISVILLE/SDF PTCLDY    90  76  63 SW8       29.84R HX 101
LOUISVILLE/LOU CLEAR     89  77  67 SW8       29.85R HX 101
FORT KNOX      NOT AVBL
$$

KYZ035>037-039>044-047>052-055>060-089>105-230300-
NORTHEAST KENTUCKY

CITY           SKY/WX    TMP DP  RH WIND       PRES   REMARKS
LEXINGTON      PTCLDY    85  72  65 SW9       29.89R HX  91
COVINGTON      CLOUDY    77  77 100 SW8       29.86R THUNDER
FRANKFORT      CLEAR     85  74  69 SW8       29.86R HX  92
$$

KYZ054-064>069-076>088-106>120-230300-
SOUTHEAST KENTUCKY

CITY           SKY/WX    TMP DP  RH WIND       PRES   REMARKS
JACKSON        PTCLDY    83  72  69 CALM      29.92S
LONDON         CLEAR     84  71  65 SW5       29.93S
SOMERSET       NOT AVBL
MIDDLESBORO    CLEAR     80  74  81 W5        29.95S
MONTICELLO     CLEAR     76  74  93 NE9       29.94R
$$





USA.gov is the U.S. government's official web portal to all federal, state and local government web resources and services.